AHY7149 UKBB-UKOO

Flight info

Callsign AHY7149
Flight time 0h 45m
Altitude 26000
Route N0480F260 BASOR M856 GOBLI L919 ODSAN
Aircraft A346/H-Q/L

Departure

Time 2026-05-07 16:07
Airport Boryspil International Airport (UKBB)

Arrival

Time 2026-05-07 16:52
Airport Odesa International Airport (UKOO)
Time Latitude Longitude Altitude Speed Heading
2026-05-07 15:43 50.33421 30.89840 435 ft 0 kts 184°
2026-05-07 16:02 50.33399 30.89837 435 ft 8 kts 184°
2026-05-07 16:02 50.33339 30.89875 435 ft 11 kts 120°
2026-05-07 16:02 50.33326 30.90009 435 ft 13 kts 92°
2026-05-07 16:03 50.33384 30.90116 435 ft 14 kts 11°
2026-05-07 16:03 50.33495 30.90130 435 ft 17 kts
2026-05-07 16:03 50.33627 30.90139 435 ft 19 kts
2026-05-07 16:03 50.33771 30.90149 435 ft 21 kts
2026-05-07 16:04 50.33930 30.90163 435 ft 23 kts
2026-05-07 16:04 50.34101 30.90172 435 ft 25 kts
2026-05-07 16:04 50.34284 30.90187 435 ft 27 kts
2026-05-07 16:04 50.34479 30.90202 435 ft 28 kts
2026-05-07 16:05 50.34688 30.90216 435 ft 30 kts
2026-05-07 16:05 50.34906 30.90232 435 ft 32 kts
2026-05-07 16:05 50.35136 30.90248 435 ft 33 kts
2026-05-07 16:05 50.35382 30.90267 435 ft 34 kts
2026-05-07 16:06 50.35576 30.90280 435 ft 27 kts
2026-05-07 16:06 50.35773 30.90293 435 ft 27 kts
2026-05-07 16:06 50.35913 30.90302 435 ft 20 kts
2026-05-07 16:06 50.36048 30.90358 435 ft 20 kts 43°
2026-05-07 16:07 50.36043 30.90580 435 ft 28 kts 139°
2026-05-07 16:07 50.35553 30.90612 435 ft 119 kts 182°
2026-05-07 16:07 50.34466 30.90531 673 ft 178 kts 184°
2026-05-07 16:07 50.33252 30.90411 1835 ft 177 kts 185°
2026-05-07 16:08 50.32055 30.90272 2933 ft 178 kts 185°
2026-05-07 16:08 50.30799 30.90166 3615 ft 193 kts 184°
2026-05-07 16:08 50.29398 30.90064 4231 ft 213 kts 184°
2026-05-07 16:08 50.27862 30.89924 4932 ft 234 kts 185°
2026-05-07 16:09 50.26180 30.89720 5708 ft 253 kts 185°
2026-05-07 16:09 50.24397 30.89501 6684 ft 263 kts 185°
2026-05-07 16:09 50.22589 30.89285 7772 ft 268 kts 185°
2026-05-07 16:09 50.20735 30.89068 8819 ft 273 kts 185°
2026-05-07 16:10 50.18835 30.88848 9838 ft 279 kts 185°
2026-05-07 16:10 50.16896 30.88627 10768 ft 287 kts 185°
2026-05-07 16:10 50.14853 30.88394 11402 ft 305 kts 185°
2026-05-07 16:10 50.12696 30.88148 11982 ft 325 kts 185°
2026-05-07 16:11 50.10368 30.87884 12552 ft 344 kts 185°
2026-05-07 16:11 50.07922 30.87607 13098 ft 363 kts 185°
2026-05-07 16:11 50.05379 30.87321 13872 ft 373 kts 185°
2026-05-07 16:11 50.02784 30.87030 14821 ft 378 kts 185°
2026-05-07 16:12 50.00151 30.86736 15731 ft 383 kts 185°
2026-05-07 16:12 49.97523 30.86438 16604 ft 388 kts 185°
2026-05-07 16:12 49.94835 30.86137 17510 ft 392 kts 185°
2026-05-07 16:12 49.92104 30.85834 18352 ft 397 kts 185°
2026-05-07 16:13 49.89339 30.85528 19156 ft 402 kts 185°
2026-05-07 16:13 49.86520 30.85215 19940 ft 408 kts 185°
2026-05-07 16:13 49.83701 30.84904 20698 ft 413 kts 185°
2026-05-07 16:13 49.80817 30.84584 21449 ft 418 kts 185°
2026-05-07 16:14 49.77916 30.84262 22169 ft 423 kts 185°
2026-05-07 16:14 49.74985 30.83937 22871 ft 428 kts 185°
2026-05-07 16:14 49.71988 30.83605 23556 ft 433 kts 185°
2026-05-07 16:14 49.69005 30.83276 24216 ft 438 kts 185°
2026-05-07 16:15 49.65975 30.82942 24731 ft 442 kts 185°
2026-05-07 16:15 49.62870 30.82600 24962 ft 445 kts 185°
2026-05-07 16:15 49.59792 30.82262 24975 ft 444 kts 185°
2026-05-07 16:15 49.56707 30.81922 24980 ft 447 kts 185°
2026-05-07 16:16 49.53567 30.81577 24983 ft 462 kts 185°
2026-05-07 16:16 49.50324 30.81222 24983 ft 467 kts 185°
2026-05-07 16:16 49.47079 30.80866 24983 ft 467 kts 185°
2026-05-07 16:16 49.43864 30.80514 24983 ft 468 kts 185°
2026-05-07 16:17 49.40638 30.80161 24983 ft 468 kts 185°
2026-05-07 16:17 49.37386 30.79806 24983 ft 468 kts 185°
2026-05-07 16:17 49.34108 30.79450 24983 ft 468 kts 185°
2026-05-07 16:17 49.30865 30.79097 24983 ft 468 kts 185°
2026-05-07 16:18 49.27643 30.78748 24983 ft 468 kts 185°
2026-05-07 16:18 49.24398 30.78396 24984 ft 468 kts 185°
2026-05-07 16:18 49.21154 30.78045 24986 ft 468 kts 185°
2026-05-07 16:18 49.17923 30.77694 24988 ft 468 kts 185°
2026-05-07 16:19 49.14659 30.77341 24992 ft 468 kts 185°
2026-05-07 16:19 49.11406 30.76991 24997 ft 469 kts 185°
2026-05-07 16:19 49.08162 30.76641 25001 ft 469 kts 185°
2026-05-07 16:19 49.04924 30.76294 25005 ft 469 kts 185°
2026-05-07 16:20 49.01667 30.75944 25008 ft 471 kts 185°
2026-05-07 16:20 48.98390 30.75592 25012 ft 471 kts 185°
2026-05-07 16:20 48.95108 30.75239 25012 ft 472 kts 185°
2026-05-07 16:20 48.91798 30.74885 25012 ft 472 kts 185°
2026-05-07 16:21 48.88662 30.74550 25012 ft 472 kts 185°
2026-05-07 16:21 48.85236 30.74187 25012 ft 472 kts 185°
2026-05-07 16:21 48.81978 30.73842 25012 ft 472 kts 185°
2026-05-07 16:21 48.78737 30.73499 25012 ft 472 kts 185°
2026-05-07 16:22 48.75448 30.73150 25012 ft 472 kts 185°
2026-05-07 16:22 48.72199 30.72804 25012 ft 472 kts 185°
2026-05-07 16:22 48.68921 30.72457 25012 ft 472 kts 185°
2026-05-07 16:22 48.65682 30.72115 25012 ft 472 kts 185°
2026-05-07 16:23 48.62403 30.71769 25012 ft 472 kts 185°
2026-05-07 16:23 48.59132 30.71423 25012 ft 472 kts 185°
2026-05-07 16:23 48.55879 30.71081 25014 ft 472 kts 185°
2026-05-07 16:23 48.52604 30.70736 25018 ft 472 kts 185°
2026-05-07 16:24 48.49322 30.70391 25022 ft 472 kts 185°
2026-05-07 16:24 48.46073 30.70050 25026 ft 472 kts 185°
2026-05-07 16:24 48.42853 30.69712 25025 ft 460 kts 185°
2026-05-07 16:24 48.39719 30.69385 25032 ft 448 kts 185°
2026-05-07 16:25 48.36628 30.69062 25035 ft 447 kts 185°
2026-05-07 16:25 48.33523 30.68737 24922 ft 446 kts 184°
2026-05-07 16:25 48.30461 30.68417 24673 ft 443 kts 184°
2026-05-07 16:25 48.27405 30.68099 24424 ft 441 kts 184°
2026-05-07 16:26 48.24339 30.67780 24107 ft 439 kts 184°
2026-05-07 16:26 48.21312 30.67467 23605 ft 435 kts 184°
2026-05-07 16:26 48.18294 30.67156 23099 ft 431 kts 184°
2026-05-07 16:26 48.16315 30.66951 22765 ft 428 kts 184°
2026-05-07 16:27 48.12369 30.66542 22095 ft 424 kts 184°
2026-05-07 16:27 48.09467 30.66187 21598 ft 421 kts 186°
2026-05-07 16:27 48.06583 30.65607 21098 ft 418 kts 189°
2026-05-07 16:27 48.03709 30.64875 20594 ft 415 kts 190°
2026-05-07 16:28 48.00890 30.64161 20132 ft 411 kts 189°
2026-05-07 16:28 47.98069 30.63448 19878 ft 410 kts 189°
2026-05-07 16:28 47.95273 30.62744 19598 ft 409 kts 189°
2026-05-07 16:28 47.92487 30.62044 19223 ft 407 kts 189°
2026-05-07 16:29 47.89711 30.61349 18849 ft 406 kts 189°
2026-05-07 16:29 47.86932 30.60657 18473 ft 403 kts 189°
2026-05-07 16:29 47.84145 30.59965 18094 ft 401 kts 189°
2026-05-07 16:29 47.81343 30.59268 17707 ft 394 kts 189°
2026-05-07 16:30 47.78670 30.58603 17333 ft 387 kts 189°
2026-05-07 16:30 47.76024 30.57945 16954 ft 381 kts 189°
2026-05-07 16:30 47.73433 30.57301 16578 ft 375 kts 189°
2026-05-07 16:30 47.70890 30.56669 16204 ft 370 kts 189°
2026-05-07 16:31 47.68348 30.56038 15824 ft 364 kts 189°
2026-05-07 16:31 47.65928 30.55438 15429 ft 345 kts 189°
2026-05-07 16:31 47.63619 30.54865 15080 ft 326 kts 189°
2026-05-07 16:31 47.61463 30.54331 14826 ft 307 kts 189°
2026-05-07 16:32 47.59428 30.53828 14572 ft 291 kts 189°
2026-05-07 16:32 47.57461 30.53343 14329 ft 287 kts 189°
2026-05-07 16:32 47.55507 30.52861 14079 ft 284 kts 189°
2026-05-07 16:32 47.53553 30.52380 13828 ft 283 kts 189°
2026-05-07 16:33 47.51609 30.51900 13577 ft 281 kts 189°
2026-05-07 16:33 47.49701 30.51430 13327 ft 277 kts 189°
2026-05-07 16:33 47.47826 30.50968 13077 ft 272 kts 189°
2026-05-07 16:33 47.45977 30.50513 12827 ft 268 kts 189°
2026-05-07 16:34 47.44163 30.50067 12578 ft 264 kts 189°
2026-05-07 16:34 47.42350 30.49621 12287 ft 262 kts 189°
2026-05-07 16:34 47.40563 30.49183 11916 ft 264 kts 189°
2026-05-07 16:34 47.38741 30.48735 11540 ft 265 kts 189°
2026-05-07 16:35 47.36935 30.48292 11168 ft 266 kts 189°
2026-05-07 16:35 47.35110 30.47844 10793 ft 267 kts 189°
2026-05-07 16:35 47.33292 30.47398 10421 ft 267 kts 189°
2026-05-07 16:35 47.31453 30.46948 10046 ft 268 kts 189°
2026-05-07 16:36 47.29635 30.46503 9788 ft 263 kts 189°
2026-05-07 16:36 47.27852 30.46067 9539 ft 259 kts 189°
2026-05-07 16:36 47.26084 30.45636 9288 ft 255 kts 189°
2026-05-07 16:36 47.24349 30.45212 9038 ft 251 kts 189°
2026-05-07 16:37 47.22612 30.44789 8783 ft 248 kts 189°
2026-05-07 16:37 47.20917 30.44377 8531 ft 244 kts 189°
2026-05-07 16:37 47.19275 30.43976 8283 ft 241 kts 189°
2026-05-07 16:37 47.17632 30.43578 8031 ft 238 kts 187°
2026-05-07 16:38 47.15986 30.43380 7777 ft 234 kts 180°
2026-05-07 16:38 47.14388 30.43512 7527 ft 231 kts 172°
2026-05-07 16:38 47.12803 30.43893 7276 ft 229 kts 170°
2026-05-07 16:38 47.11254 30.44311 7026 ft 226 kts 170°
2026-05-07 16:39 47.09719 30.44730 6776 ft 224 kts 170°
2026-05-07 16:39 47.08194 30.45143 6525 ft 222 kts 170°
2026-05-07 16:39 47.06691 30.45547 6276 ft 220 kts 170°
2026-05-07 16:39 47.05176 30.45953 6023 ft 218 kts 170°
2026-05-07 16:40 47.03702 30.46345 5775 ft 217 kts 170°
2026-05-07 16:40 47.02226 30.46736 5524 ft 215 kts 170°
2026-05-07 16:40 47.00752 30.47127 5273 ft 214 kts 170°
2026-05-07 16:40 46.99297 30.47511 5023 ft 212 kts 170°
2026-05-07 16:41 46.97849 30.47893 4773 ft 211 kts 170°
2026-05-07 16:41 46.96412 30.48272 4523 ft 210 kts 171°
2026-05-07 16:41 46.94973 30.48653 4272 ft 209 kts 171°
2026-05-07 16:41 46.93552 30.49027 4023 ft 208 kts 171°
2026-05-07 16:42 46.92119 30.49405 3770 ft 207 kts 171°
2026-05-07 16:42 46.90711 30.49776 3521 ft 206 kts 171°
2026-05-07 16:42 46.89298 30.50147 3271 ft 205 kts 171°
2026-05-07 16:42 46.87904 30.50511 3034 ft 204 kts 171°
2026-05-07 16:43 46.86527 30.50871 2963 ft 194 kts 171°
2026-05-07 16:43 46.85229 30.51211 2959 ft 189 kts 171°
2026-05-07 16:43 46.83929 30.51552 2963 ft 189 kts 171°
2026-05-07 16:43 46.82629 30.51892 2970 ft 189 kts 171°
2026-05-07 16:44 46.81336 30.52231 2977 ft 189 kts 171°
2026-05-07 16:44 46.80043 30.52570 2982 ft 189 kts 171°
2026-05-07 16:44 46.78753 30.52907 2987 ft 189 kts 171°
2026-05-07 16:44 46.77450 30.53248 2991 ft 189 kts 171°
2026-05-07 16:45 46.76162 30.53585 2994 ft 189 kts 171°
2026-05-07 16:45 46.74877 30.53922 2998 ft 190 kts 171°
2026-05-07 16:45 46.73488 30.54223 3008 ft 209 kts 172°
2026-05-07 16:45 46.72059 30.54637 3005 ft 214 kts 167°
2026-05-07 16:46 46.70650 30.55207 3006 ft 215 kts 165°
2026-05-07 16:46 46.69229 30.55831 3007 ft 215 kts 164°
2026-05-07 16:46 46.67788 30.56468 3008 ft 215 kts 164°
2026-05-07 16:46 46.66352 30.57098 3008 ft 215 kts 165°
2026-05-07 16:47 46.64934 30.57714 2953 ft 215 kts 165°
2026-05-07 16:47 46.63499 30.58334 2782 ft 215 kts 165°
2026-05-07 16:47 46.62080 30.58946 2657 ft 209 kts 165°
2026-05-07 16:47 46.60750 30.59519 2662 ft 188 kts 165°
2026-05-07 16:48 46.59558 30.60033 2577 ft 171 kts 165°
2026-05-07 16:48 46.58470 30.60502 2464 ft 155 kts 165°
2026-05-07 16:48 46.57478 30.60929 2365 ft 142 kts 165°
2026-05-07 16:48 46.56544 30.61330 2284 ft 140 kts 165°
2026-05-07 16:49 46.55605 30.61735 2109 ft 139 kts 165°
2026-05-07 16:49 46.54675 30.62135 2024 ft 139 kts 165°
2026-05-07 16:49 46.53744 30.62536 2018 ft 139 kts 165°
2026-05-07 16:49 46.52844 30.62924 2002 ft 140 kts 165°
2026-05-07 16:50 46.51884 30.63338 1820 ft 139 kts 165°
2026-05-07 16:50 46.50965 30.63734 1637 ft 138 kts 164°
2026-05-07 16:50 46.50033 30.64136 1455 ft 138 kts 164°
2026-05-07 16:50 46.49121 30.64530 1275 ft 138 kts 164°
2026-05-07 16:51 46.48170 30.64941 1088 ft 137 kts 164°
2026-05-07 16:51 46.47260 30.65333 908 ft 137 kts 164°
2026-05-07 16:51 46.46345 30.65728 726 ft 136 kts 164°
2026-05-07 16:51 46.45433 30.66121 545 ft 136 kts 164°
2026-05-07 16:52 46.44517 30.66517 351 ft 135 kts 163°
2026-05-07 16:52 46.43623 30.66904 199 ft 133 kts 165°
2026-05-07 16:52 46.42861 30.67228 187 ft 85 kts 163°
2026-05-07 16:52 46.42547 30.67362 187 ft 18 kts 164°
2026-05-07 16:53 46.42437 30.67409 187 ft 17 kts 163°
2026-05-07 16:53 46.42314 30.67462 187 ft 19 kts 163°
2026-05-07 16:53 46.42181 30.67519 187 ft 22 kts 164°
2026-05-07 16:53 46.42022 30.67587 187 ft 24 kts 163°
2026-05-07 16:54 46.41852 30.67662 187 ft 25 kts 163°
2026-05-07 16:54 46.41678 30.67736 187 ft 24 kts 165°
2026-05-07 16:54 46.41528 30.67804 187 ft 23 kts 155°
2026-05-07 16:54 46.41450 30.67994 187 ft 24 kts 83°
2026-05-07 16:55 46.41550 30.68124 187 ft 21 kts 349°
2026-05-07 16:55 46.41701 30.68075 187 ft 23 kts 345°
2026-05-07 16:55 46.41866 30.68003 187 ft 25 kts 340°
2026-05-07 16:55 46.42041 30.67918 187 ft 27 kts 344°
2026-05-07 16:56 46.42234 30.67837 187 ft 30 kts 343°
2026-05-07 16:56 46.42442 30.67744 187 ft 32 kts 343°
2026-05-07 16:56 46.42903 30.67546 187 ft 36 kts 344°
2026-05-07 16:57 46.43155 30.67435 187 ft 38 kts 343°
2026-05-07 16:57 46.43422 30.67321 187 ft 40 kts 343°
2026-05-07 16:57 46.43689 30.67200 187 ft 35 kts 343°
2026-05-07 16:57 46.43763 30.67167 187 ft 8 kts 343°
2026-05-07 16:58 46.43837 30.67153 187 ft 12 kts
2026-05-07 16:58 46.43898 30.67246 187 ft 15 kts 66°
2026-05-07 16:58 46.43949 30.67335 187 ft 11 kts
2026-05-07 16:58 46.44040 30.67329 187 ft 14 kts 348°
2026-05-07 16:59 46.44116 30.67302 187 ft 10 kts 329°
2026-05-07 16:59 46.44136 30.67255 187 ft 5 kts 274°
2026-05-07 16:59 46.44134 30.67211 187 ft 0 kts 261°